Location: Jarocin
(51.9626°N, 17.5030°E)
Time: 01:36:12
(UTC+02:00)

Envisat - Visible Passes

Search period start: 18 October 2019 00:00
Search period end: 27 October 2019 23:00
Orbit: 764 x 766 km, 98.1° (Epoch: 17 October)

Date Brightness Start Highest point End Pass type
(mag) Time Alt. Az. Time Alt. Az. Time Alt. Az.
18 Oct 6.7 06:10:47 10° ENE 06:11:54 11° E 06:13:00 10° E visible
18 Oct 3.7 19:07:06 10° S 19:12:06 57° W 19:17:08 10° NNW visible
19 Oct 3.0 18:30:13 10° SSE 18:35:17 75° ENE 18:40:23 10° NNW visible
19 Oct 5.7 20:11:21 10° SW 20:14:54 19° W 20:18:28 10° NW visible
20 Oct 6.1 06:34:24 10° NE 06:37:49 18° E 06:41:11 10° SE visible
20 Oct 4.7 19:33:05 10° SSW 19:37:44 36° W 19:42:26 10° NNW visible
21 Oct 3.4 18:55:44 10° S 19:00:48 70° WSW 19:05:54 10° NNW visible
21 Oct 6.2 20:39:08 10° WSW 20:40:48 11° W 20:42:27 10° WNW visible
22 Oct 3.0 18:19:02 10° SSE 18:24:03 62° ENE 18:29:05 10° N visible
22 Oct 5.4 19:59:31 10° SW 20:03:30 23° W 20:07:30 10° NW visible
23 Oct 6.2 06:23:38 10° NE 06:26:23 14° E 06:29:08 10° ESE visible
23 Oct 4.3 19:21:35 10° S 19:26:24 43° W 19:31:17 10° NNW visible
24 Oct 3.1 18:44:25 10° SSE 18:49:31 84° WSW 18:54:39 10° NNW visible
24 Oct 6.0 20:26:40 10° WSW 20:29:21 14° W 20:32:02 10° NW visible
25 Oct 5.8 06:48:12 10° NE 06:52:14 23° E 06:56:14 10° SE visible
25 Oct 3.2 18:07:54 10° SE 18:12:49 51° ENE 18:17:45 10° N visible
25 Oct 5.1 19:47:48 10° SSW 19:52:07 27° W 19:56:27 10° NW visible
26 Oct 6.4 06:13:11 10° ENE 06:14:57 12° E 06:16:42 10° ESE visible
26 Oct 3.8 19:10:08 10° S 19:15:05 53° W 19:20:05 10° NNW visible
27 Oct 2.9 17:33:10 10° SSE 17:38:15 81° ENE 17:43:22 10° NNW visible
27 Oct 5.8 19:14:35 10° SW 19:17:55 17° W 19:21:17 10° NW visible
